Date String (YYYY-MM-DD hh:mm:ss) UTC,Instrument flags,Ambient pressure (hPa),Sample flow (lpm),Bypass flow (lpm),Sample temperature (°C),Ambient temperature (°C),ASC tube jacket temperature (°C),LED temperature (°C),Box temperature (°C),Sample RH (%),Span deviation,Mass concentration (μg/m³),Mass concentration (μg/m³),Mass concentration (μg/m³)
DateTimeUTC,F1_M11,P_M11,Q1_M11,Q2_M11,T1_M11,T2_M11,T3_M11,T4_M11,T5_M11,U1_M11,ZSPAN_M11,X0_M11,X2_M11,X1_M11
2023-02-08 02:00:00,,0829.3,5.02,0.00,24.0,22.4,00.0,33.0,25.7,08.8,0000.0,0011.13,0003.55,0002.52
2023-02-08 02:01:00,,0829.2,5.01,0.00,24.0,22.4,00.0,33.0,25.6,08.8,0000.0,0010.84,0003.53,0002.50
2023-02-08 02:02:00,,0829.1,5.00,0.00,24.0,22.4,00.0,33.0,25.6,08.8,0000.0,0011.53,0003.53,0002.46
2023-02-08 02:03:00,,0829.2,4.98,0.00,24.0,22.4,00.0,33.0,25.6,08.7,0000.0,0010.95,0003.49,0002.43
2023-02-08 02:04:00,,0829.0,5.01,0.00,24.0,22.3,00.0,33.0,25.6,08.7,0000.0,0011.72,0003.49,0002.40
2023-02-08 02:05:00,,0828.8,5.01,0.00,23.9,22.3,00.0,32.9,25.6,08.7,0000.0,0011.92,0003.48,0002.39
2023-02-08 02:06:00,,0828.7,5.02,0.00,23.9,22.3,00.0,32.9,25.6,08.7,0000.0,0011.93,0003.43,0002.37
2023-02-08 02:07:00,,0828.7,5.00,0.00,23.9,22.3,00.0,32.9,25.5,08.7,0000.0,0011.70,0003.40,0002.36
2023-02-08 02:08:00,,0828.7,4.99,0.00,23.9,22.3,00.0,32.9,25.6,08.7,0000.0,0011.74,0003.42,0002.34
2023-02-08 02:09:00,,0828.7,5.01,0.00,23.9,22.2,00.0,32.9,25.5,08.8,0000.0,0011.09,0003.45,0002.33
2023-02-08 02:10:00,,0828.8,5.00,0.00,23.9,22.2,00.0,32.9,25.5,08.8,0000.0,0010.55,0003.45,0002.34
2023-02-08 02:11:00,,0828.8,5.00,0.00,23.8,22.2,00.0,32.9,25.5,08.8,0000.0,0010.60,0003.45,0002.34
2023-02-08 02:12:00,,0829.3,5.02,0.00,23.8,22.2,00.0,32.8,25.5,08.8,0000.0,0011.23,0003.49,0002.36
2023-02-08 02:13:00,,0829.1,5.00,0.00,23.8,22.1,00.0,32.8,25.4,08.8,0000.0,0010.87,0003.50,0002.37
2023-02-08 02:14:00,,0829.1,4.99,0.00,23.8,22.1,00.0,32.8,25.4,08.9,0000.0,0010.74,0003.51,0002.39
2023-02-08 02:15:00,,0829.2,5.03,0.00,23.8,22.1,00.0,32.8,25.5,08.9,0000.0,0010.12,0003.52,0002.41
2023-02-08 02:16:00,,0829.1,5.02,0.00,23.8,22.1,00.0,32.8,25.5,08.8,0000.0,0009.82,0003.53,0002.42
2023-02-08 02:17:00,,0829.1,5.02,0.00,23.8,22.1,00.0,32.8,25.4,08.8,0000.0,0009.59,0003.52,0002.41
2023-02-08 02:18:00,,0829.1,4.97,0.00,23.7,22.0,00.0,32.7,25.4,08.8,0000.0,0009.59,0003.54,0002.42
2023-02-08 02:19:00,,0828.8,4.98,0.00,23.7,22.0,00.0,32.7,25.4,08.8,0000.0,0009.89,0003.54,0002.43
2023-02-08 02:20:00,,0828.7,5.02,0.00,23.7,22.0,00.0,32.7,25.3,08.9,0000.0,0010.06,0003.55,0002.43
2023-02-08 02:21:00,,0828.6,5.04,0.00,23.7,22.0,00.0,32.7,25.3,08.9,0000.0,0010.14,0003.57,0002.43
2023-02-08 02:22:00,,0828.7,4.99,0.00,23.7,22.0,00.0,32.7,25.3,08.9,0000.0,0009.82,0003.54,0002.44
2023-02-08 02:23:00,,0828.7,5.00,0.00,23.6,22.0,00.0,32.7,25.2,08.9,0000.0,0008.88,0003.48,0002.41
2023-02-08 02:24:00,,0828.7,5.01,0.00,23.6,22.0,00.0,32.6,25.2,08.9,0000.0,0008.84,0003.45,0002.40
2023-02-08 02:25:00,,0828.9,5.00,0.00,23.6,22.0,00.0,32.6,25.2,08.9,0000.0,0008.74,0003.44,0002.39
2023-02-08 02:26:00,,0828.7,5.00,0.00,23.6,21.9,00.0,32.6,25.2,08.9,0000.0,0009.24,0003.47,0002.39
2023-02-08 02:27:00,,0828.6,5.01,0.00,23.6,21.9,00.0,32.6,25.2,08.9,0000.0,0009.30,0003.46,0002.40
2023-02-08 02:28:00,,0828.6,5.00,0.00,23.6,21.9,00.0,32.6,25.2,08.9,0000.0,0009.38,0003.47,0002.40
2023-02-08 02:29:00,,0828.8,5.01,0.00,23.6,21.9,00.0,32.6,25.2,08.9,0000.0,0009.34,0003.48,0002.41
2023-02-08 02:30:00,,0828.8,5.01,0.00,23.5,21.9,00.0,32.5,25.2,09.0,0000.0,0009.48,0003.49,0002.40
2023-02-08 02:31:00,,0828.8,4.99,0.00,23.5,21.9,00.0,32.5,25.2,08.9,0000.0,0010.07,0003.51,0002.40
2023-02-08 02:32:00,,0829.0,5.00,0.00,23.5,21.9,00.0,32.5,25.1,08.9,0000.0,0010.53,0003.51,0002.38
2023-02-08 02:33:00,,0829.1,5.01,0.00,23.5,21.8,00.0,32.5,25.1,08.9,0000.0,0011.08,0003.54,0002.36
2023-02-08 02:34:00,,0829.0,5.02,0.00,23.5,21.8,00.0,32.5,25.1,08.9,0000.0,0010.99,0003.56,0002.36
2023-02-08 02:35:00,,0829.0,5.05,0.00,23.5,21.8,00.0,32.5,25.1,08.9,0000.0,0010.39,0003.55,0002.37
2023-02-08 02:36:00,,0829.1,5.00,0.00,23.5,21.8,00.0,32.5,25.1,08.9,0000.0,0010.47,0003.54,0002.36
2023-02-08 02:37:00,,0828.9,5.00,0.00,23.4,21.8,00.0,32.4,25.1,08.9,0000.0,0010.13,0003.51,0002.36
2023-02-08 02:38:00,,0829.0,5.01,0.00,23.4,21.8,00.0,32.4,25.1,08.9,0000.0,0009.85,0003.48,0002.35
2023-02-08 02:39:00,,0828.9,4.98,0.00,23.4,21.8,00.0,32.4,25.0,08.9,0000.0,0010.17,0003.46,0002.33
2023-02-08 02:40:00,,0828.9,4.97,0.00,23.4,21.8,00.0,32.4,25.0,08.9,0000.0,0010.54,0003.45,0002.30
2023-02-08 02:41:00,,0829.0,5.03,0.00,23.4,21.8,00.0,32.4,25.0,08.9,0000.0,0010.28,0003.44,0002.27
2023-02-08 02:42:00,,0828.9,5.07,0.00,23.4,21.8,00.0,32.4,25.0,08.9,0000.0,0009.40,0003.37,0002.25
2023-02-08 02:43:00,,0828.5,5.01,0.00,23.4,21.7,00.0,32.4,25.0,08.9,0000.0,0008.71,0003.29,0002.23
2023-02-08 02:44:00,,0828.5,5.00,0.00,23.3,21.7,00.0,32.3,25.0,08.9,0000.0,0008.40,0003.27,0002.22
2023-02-08 02:45:00,,0828.5,5.04,0.00,23.3,21.7,00.0,32.3,25.0,08.9,0000.0,0008.35,0003.27,0002.20
2023-02-08 02:46:00,,0828.5,4.98,0.00,23.3,21.7,00.0,32.3,25.0,08.9,0000.0,0008.46,0003.28,0002.17
2023-02-08 02:47:00,,0828.5,5.03,0.00,23.3,21.7,00.0,32.3,24.9,08.8,0000.0,0008.52,0003.30,0002.16
2023-02-08 02:48:00,,0828.5,4.97,0.00,23.3,21.7,00.0,32.3,24.9,08.9,0000.0,0008.41,0003.28,0002.15
2023-02-08 02:49:00,,0828.5,5.04,0.00,23.3,21.7,00.0,32.3,24.9,08.9,0000.0,0008.71,0003.31,0002.16
2023-02-08 02:50:00,,0828.5,4.98,0.00,23.2,21.6,00.0,32.2,24.9,08.9,0000.0,0008.33,0003.32,0002.16
2023-02-08 02:51:00,,0828.5,5.00,0.00,23.2,21.6,00.0,32.2,24.9,08.9,0000.0,0007.88,0003.30,0002.16
2023-02-08 02:52:00,,0828.5,4.99,0.00,23.2,21.6,00.0,32.2,24.9,08.9,0000.0,0007.94,0003.29,0002.18
2023-02-08 02:53:00,,0828.5,5.02,0.00,23.2,21.6,00.0,32.2,24.9,08.9,0000.0,0008.48,0003.34,0002.20
2023-02-08 02:54:00,,0828.5,5.02,0.00,23.2,21.6,00.0,32.2,24.9,08.9,0000.0,0008.52,0003.34,0002.21
2023-02-08 02:55:00,,0828.5,5.00,0.00,23.2,21.6,00.0,32.2,24.9,08.9,0000.0,0008.40,0003.36,0002.21
2023-02-08 02:56:00,,0828.5,4.98,0.00,23.2,21.6,00.0,32.2,24.9,08.9,0000.0,0008.24,0003.33,0002.21
2023-02-08 02:57:00,,0828.5,5.04,0.00,23.2,21.6,00.0,32.2,24.9,08.9,0000.0,0008.25,0003.35,0002.22
2023-02-08 02:58:00,,0828.4,5.01,0.00,23.2,21.5,00.0,32.2,24.8,08.9,0000.0,0008.17,0003.36,0002.23
2023-02-08 02:59:00,,0828.4,4.95,0.00,23.1,21.5,00.0,32.1,24.8,08.9,0000.0,0008.21,0003.39,0002.23
